Tracking 19576 objects as of 17-Feb-2019
HD Live streaming from Space Station
objects crossing your sky now

THORAD DELTA 1 DEB

Track THORAD DELTA 1 DEB now!
10-day predictions


NORAD ID: 14475
Int'l Code: 1974-089ER
Perigee: 1,337.5 km
Apogee: 1,532.8 km
Inclination: 101.1 °
Period: 114.4 minutes
Semi major axis: 7806 km
RCS: 0.0155 m2 (small)
Launch date: November 15, 1974
Source: United States (US)
Launch site: AIR FORCE WESTERN TEST RANGE (AFWTR)

Note: This is SATELLITE DEBRIS
aabbcc
Your satellite tracking list
Your tracking list is empty




NASA's NSSDC Master Catalog

Two Line Element Set (TLE):
1 14475U 74089ER  19046.98284905 -.00000253  00000-0 -12051-2 0  9997
2 14475 101.1027 316.3407 0125143 157.2799 269.9251 12.58775325646369
Source of the keplerian elements: AFSPC